Terug naar catalogus

FENGYUN 1C DEB

LostSSO
NORAD 37027·DEBRIS·🇨🇳 China

Gelanceerd May 10, 1999 vanaf Taiyuan Satellite Launch Center

Loading…

Volgende Passages (komende 24 uur)

TLE

VerouderdSource: Space-Track

Epoch: Sep 25, 2012, 23:55 UTC

1 37027U 99025EDK 12269.99706184 -.00225168 +00000-0 -95582-1 0  9994
2 37027 098.8325 286.9156 0124832 037.2816 323.8819 14.22836690193952

Volg FENGYUN 1C DEB in realtime met AllMySat

Download on the App Store